{"data":{"norad_id":67858,"intl_designator":"2026-034J","name":"STARLINK-36837","alt_names":[],"object_type":"PAYLOAD","status":"ACTIVE","operator":null,"country":"US","launch_date":"2026-02-20","launch_site_code":"AFETR","launch_vehicle":null,"mission":null,"orbit_class":"UNKNOWN","rcs_meters":null,"size_class":null,"mass_kg":null,"dimensions":null,"purposes":["comms"],"wikipedia_slug":null,"has_3d_model":false,"image_url":null,"decayed_at":null,"tle_current":{"epoch":"2026-05-25T04:31:07.868064Z","epoch_age_seconds":59105,"freshness":"FRESH","line1":"1 67858U 26034J   26145.18828551  .00035655  00000+0  10606-2 0  9993","line2":"2 67858  53.1578 207.1099 0001439  96.3088 263.8078 15.34423542 15771","mean_motion":15.34423542,"eccentricity":0.0001439,"inclination_deg":53.1578,"raan_deg":207.1099,"arg_perigee_deg":96.3088,"mean_anomaly_deg":263.8078,"bstar":0.0010606,"rev_number":1577,"period_min":93.846318215574,"perigee_km":461.64888247472,"apogee_km":463.61765615823,"semimajor_km":6840.7702693165,"source":"CELESTRAK","updated_at":"2026-05-25T13:38:21.726308Z"}}}